When you browse on this site, cookies collect data to enhance your experience and personalize the content and advertising you see.
Visit our Privacy Policy to learn more. By continuing to use the site, you agree to this use of cookies and data.
  • In Czech Republic
  • List of Countries
  • For 7 days
  • Water Temperature
  • Satellite Maps
  • Weather Map
  • Weather Widgets
  • user-avatar
    Login

    Hourly Weather Nashavar

    Today, 23 March, Saturday

    Time Temperature Precipitation Wind Pressure Humidity
    00:00 +21°C° 0 mm 2 mps 733 mmHg 31%
    01:00 +20°C° 0 mm 2 mps 733 mmHg 32%
    02:00 +20°C° 0 mm 2 mps 733 mmHg 34%
    03:00 +19°C° 0 mm 2 mps 733 mmHg 35%
    04:00 +19°C° 0 mm 2 mps 732 mmHg 36%
    05:00 +19°C° 0 mm 2 mps 732 mmHg 36%
    06:00 +19°C° 0 mm 2 mps 732 mmHg 37%
    07:00 +20°C° 0 mm 2 mps 732 mmHg 38%
    08:00 +20°C° 0 mm 2 mps 732 mmHg 39%
    09:00 +20°C° 0 mm 3 mps 733 mmHg 38%
    10:00 +21°C° 0 mm 3 mps 733 mmHg 38%
    11:00 +21°C° 0 mm 3 mps 733 mmHg 41%
    12:00 +21°C° 0.1 mm 4 mps 733 mmHg 41%
    13:00 +21°C° 0.1 mm 4 mps 732 mmHg 41%
    14:00 +21°C° 0.1 mm 4 mps 732 mmHg 42%
    15:00 +21°C° 0 mm 4 mps 732 mmHg 40%
    16:00 +22°C° 0 mm 3 mps 732 mmHg 38%
    17:00 +23°C° 0 mm 2 mps 732 mmHg 35%
    18:00 +21°C° 0 mm 2 mps 732 mmHg 40%
    19:00 +20°C° 0 mm 2 mps 732 mmHg 44%
    20:00 +19°C° 0 mm 1 mps 732 mmHg 48%
    21:00 +19°C° 0 mm 1 mps 732 mmHg 49%
    22:00 +18°C° 0 mm 1 mps 732 mmHg 50%
    23:00 +18°C° 0 mm 1 mps 732 mmHg 51%

    Tomorrow, 24 March, Sunday

    Time Temperature Precipitation Wind Pressure Humidity
    00:00 +18°C° 0 mm 1 mps 732 mmHg 52%
    01:00 +16°C° 0 mm 1 mps 732 mmHg 52%
    02:00 +16°C° 0 mm 1 mps 732 mmHg 52%
    03:00 +16°C° 0 mm 1 mps 732 mmHg 52%
    04:00 +16°C° 0 mm 2 mps 732 mmHg 51%
    05:00 +16°C° 0 mm 2 mps 732 mmHg 51%
    06:00 +16°C° 0 mm 2 mps 732 mmHg 49%
    07:00 +17°C° 0 mm 2 mps 732 mmHg 47%
    08:00 +18°C° 0 mm 2 mps 732 mmHg 45%
    09:00 +20°C° 0 mm 2 mps 732 mmHg 40%
    10:00 +21°C° 0 mm 2 mps 732 mmHg 35%
    11:00 +24°C° 0 mm 2 mps 732 mmHg 30%
    12:00 +25°C° 0 mm 2 mps 732 mmHg 28%
    13:00 +26°C° 0 mm 2 mps 732 mmHg 26%
    14:00 +27°C° 0 mm 1 mps 731 mmHg 24%
    15:00 +27°C° 0 mm 1 mps 731 mmHg 24%
    16:00 +27°C° 0 mm 1 mps 731 mmHg 24%
    17:00 +27°C° 0 mm 1 mps 730 mmHg 23%
    18:00 +25°C° 0 mm 1 mps 730 mmHg 27%
    19:00 +21°C° 0 mm 0 mps 730 mmHg 30%
    20:00 +20°C° 0 mm 0 mps 731 mmHg 34%
    21:00 +21°C° 0 mm 1 mps 731 mmHg 33%
    22:00 +21°C° 0 mm 1 mps 731 mmHg 32%
    23:00 +20°C° 0 mm 2 mps 731 mmHg 31%

    Day after tomorrow, 25 March, Monday

    Time Temperature Precipitation Wind Pressure Humidity
    00:00 +19°C° 0 mm 2 mps 731 mmHg 30%
    01:00 +19°C° 0 mm 2 mps 731 mmHg 29%
    02:00 +18°C° 0 mm 2 mps 730 mmHg 27%
    03:00 +18°C° 0 mm 3 mps 730 mmHg 26%
    04:00 +18°C° 0 mm 3 mps 730 mmHg 25%
    05:00 +17°C° 0 mm 3 mps 730 mmHg 24%
    06:00 +18°C° 0 mm 3 mps 730 mmHg 25%
    07:00 +19°C° 0 mm 3 mps 730 mmHg 25%
    08:00 +20°C° 0 mm 3 mps 731 mmHg 25%
    09:00 +21°C° 0 mm 3 mps 731 mmHg 22%
    10:00 +24°C° 0 mm 3 mps 731 mmHg 19%
    11:00 +26°C° 0 mm 3 mps 731 mmHg 16%
    12:00 +27°C° 0 mm 3 mps 731 mmHg 15%
    13:00 +28°C° 0 mm 3 mps 731 mmHg 14%
    14:00 +29°C° 0 mm 2 mps 730 mmHg 13%
    15:00 +29°C° 0 mm 2 mps 730 mmHg 13%
    16:00 +29°C° 0 mm 2 mps 730 mmHg 14%
    17:00 +29°C° 0 mm 1 mps 730 mmHg 14%
    18:00 +27°C° 0 mm 1 mps 730 mmHg 16%
    19:00 +25°C° 0 mm 1 mps 730 mmHg 19%
    20:00 +23°C° 0 mm 1 mps 730 mmHg 21%
    21:00 +23°C° 0 mm 1 mps 731 mmHg 22%
    22:00 +22°C° 0 mm 1 mps 731 mmHg 22%
    23:00 +21°C° 0 mm 1 mps 731 mmHg 23%

    26 March, Tuesday

    Time Temperature Precipitation Wind Pressure Humidity
    00:00 +21°C° 0 mm 1 mps 731 mmHg 24%
    01:00 +20°C° 0 mm 1 mps 731 mmHg 24%
    02:00 +19°C° 0 mm 1 mps 731 mmHg 25%
    03:00 +19°C° 0 mm 1 mps 730 mmHg 26%
    04:00 +18°C° 0 mm 1 mps 730 mmHg 26%
    05:00 +18°C° 0 mm 1 mps 730 mmHg 27%
    06:00 +19°C° 0 mm 1 mps 731 mmHg 25%
    07:00 +20°C° 0 mm 1 mps 731 mmHg 24%
    08:00 +22°C° 0 mm 1 mps 732 mmHg 23%
    09:00 +23°C° 0 mm 1 mps 732 mmHg 20%
    10:00 +25°C° 0 mm 1 mps 732 mmHg 18%
    11:00 +27°C° 0 mm 1 mps 733 mmHg 15%
    12:00 +28°C° 0 mm 1 mps 732 mmHg 15%
    13:00 +29°C° 0 mm 1 mps 732 mmHg 14%
    14:00 +30°C° 0 mm 1 mps 732 mmHg 13%
    15:00 +30°C° 0 mm 1 mps 731 mmHg 14%
    16:00 +30°C° 0 mm 1 mps 731 mmHg 15%
    17:00 +28°C° 0 mm 0 mps 731 mmHg 16%
    18:00 +26°C° 0 mm 0 mps 732 mmHg 19%
    19:00 +25°C° 0 mm 0 mps 732 mmHg 21%
    20:00 +23°C° 0 mm 0 mps 732 mmHg 24%
    21:00 +25°C° 0 mm 1 mps 732 mmHg 25%
    22:00 +25°C° 0 mm 1 mps 733 mmHg 26%
    23:00 +24°C° 0 mm 1 mps 733 mmHg 27%

    27 March, Wednesday

    Time Temperature Precipitation Wind Pressure Humidity
    00:00 +24°C° 0 mm 1 mps 732 mmHg 29%
    01:00 +23°C° 0 mm 1 mps 732 mmHg 31%
    02:00 +22°C° 0 mm 1 mps 732 mmHg 32%
    03:00 +22°C° 0 mm 1 mps 731 mmHg 33%
    04:00 +21°C° 0 mm 1 mps 731 mmHg 34%
    05:00 +21°C° 0 mm 1 mps 731 mmHg 34%
    06:00 +22°C° 0 mm 1 mps 731 mmHg 33%
    07:00 +23°C° 0 mm 1 mps 732 mmHg 31%
    08:00 +24°C° 0 mm 1 mps 732 mmHg 29%
    09:00 +26°C° 0 mm 1 mps 732 mmHg 26%
    10:00 +27°C° 0 mm 1 mps 732 mmHg 23%
    11:00 +29°C° 0 mm 1 mps 732 mmHg 20%
    12:00 +30°C° 0 mm 1 mps 732 mmHg 19%
    13:00 +31°C° 0 mm 1 mps 731 mmHg 18%
    14:00 +31°C° 0 mm 1 mps 731 mmHg 17%
    15:00 +31°C° 0 mm 1 mps 731 mmHg 18%
    16:00 +31°C° 0 mm 1 mps 730 mmHg 19%
    17:00 +31°C° 0 mm 1 mps 730 mmHg 20%
    18:00 +29°C° 0 mm 1 mps 731 mmHg 23%
    19:00 +28°C° 0 mm 1 mps 731 mmHg 25%
    20:00 +25°C° 0 mm 0 mps 731 mmHg 27%
    21:00 +24°C° 0 mm 0 mps 732 mmHg 29%
    22:00 +24°C° 0 mm 0 mps 732 mmHg 30%
    23:00 +23°C° 0 mm 0 mps 732 mmHg 31%

    28 March, Thursday

    Time Temperature Precipitation Wind Pressure Humidity
    00:00 +22°C° 0 mm 0 mps 731 mmHg 32%
    01:00 +22°C° 0 mm 0 mps 731 mmHg 33%
    02:00 +21°C° 0 mm 0 mps 731 mmHg 34%
    03:00 +21°C° 0 mm 0 mps 730 mmHg 34%
    04:00 +22°C° 0 mm 1 mps 730 mmHg 35%
    05:00 +22°C° 0 mm 1 mps 730 mmHg 35%
    06:00 +23°C° 0 mm 1 mps 730 mmHg 33%
    07:00 +24°C° 0 mm 1 mps 731 mmHg 31%
    08:00 +26°C° 0 mm 1 mps 731 mmHg 29%
    09:00 +27°C° 0 mm 1 mps 731 mmHg 27%
    10:00 +29°C° 0 mm 1 mps 731 mmHg 24%
    11:00 +31°C° 0 mm 1 mps 731 mmHg 22%
    12:00 +31°C° 0 mm 1 mps 731 mmHg 21%
    13:00 +32°C° 0 mm 1 mps 730 mmHg 20%
    14:00 +33°C° 0 mm 1 mps 729 mmHg 19%
    15:00 +33°C° 0 mm 1 mps 729 mmHg 19%
    16:00 +33°C° 0 mm 1 mps 729 mmHg 20%
    17:00 +34°C° 0 mm 2 mps 729 mmHg 20%
    18:00 +31°C° 0.2 mm 1 mps 729 mmHg 25%
    19:00 +29°C° 0.2 mm 1 mps 729 mmHg 29%
    20:00 +27°C° 0.2 mm 1 mps 730 mmHg 33%
    21:00 +27°C° 0.2 mm 1 mps 730 mmHg 35%
    22:00 +24°C° 0.2 mm 0 mps 730 mmHg 38%
    23:00 +23°C° 0.2 mm 0 mps 730 mmHg 41%
    Show more